Tampa Macdill AFB, FL

1:42 AM EDT on June 23, 2017 (GMT -0400)
MacDill Air Force Base

Weather History for KMCF - November, 2012

Change the Weather History Date:

Sunday, November 4, 2012

  Actual Average Record
Temperature  
Mean Temperature 70 °F -  
Max Temperature 82 °F 78 °F 91 °F (2015)
Min Temperature 60 °F 61 °F 48 °F (1999)
Cooling Degree Days 5    
Growing Degree Days 20 (Base 50)    
Moisture  
Dew Point 66 °F    
Average Humidity 95    
Maximum Humidity 100    
Minimum Humidity 50    
Precipitation  
Precipitation 0.01 in - - ()
Sea Level Pressure  
Sea Level Pressure 30.11 in    
Wind  
Wind Speed 1 mph (WNW)    
Max Wind Speed 8 mph    
Max Gust Speed -    
Visibility 3 miles    
Events Fog    
Averages and records for this station are not official NWS values.
T = Trace of Precipitation, MM = Missing Value Source: NWS Daily Summary

Daily Weather History Graph

Daily Weather History Graph

Search for Another Location

Airport or City:

Trip Planner

Search our weather history database for the weather conditions in past years. The results will help you decide how hot, cold, wet, or windy it might be!

Date:

Astronomy

Nov. 04, 2012 Rise Set
Actual Time 6:43 AM EST 5:43 PM EST
Civil Twilight 6:19 AM EST 6:07 PM EST
Nautical Twilight 5:51 AM EST 6:35 PM EST
Astronomical Twilight 5:23 AM EST 7:03 PM EST
Moon 10:24 PM EST (11/4) 11:21 AM EST (11/4)
Length of Visible Light 11h 48m
Length of Day
10h 59m
Waning Gibbous, 72% of the Moon is Illuminated
Nov 4
Waning Gibbous
Nov 6
Last Quarter
Nov 13
New
Nov 20
First Quarter
Nov 28
Full

Hourly Weather History & Observations

Time (EST) Temp. Heat Index Dew Point Humidity Pressure Visibility Wind Dir Wind Speed Gust Speed Precip Events Conditions
12:00 AM 62.6 °F - 62.6 °F 100% 30.12 in 0.2 mi Calm Calm - N/A Fog Fog
12:12 AM 62.6 °F - 62.6 °F 100% 30.12 in 0.2 mi Calm Calm - N/A Fog Fog
12:15 AM 62.6 °F - 62.6 °F 100% 30.12 in 0.5 mi Calm Calm - N/A Fog Fog
12:19 AM 62.6 °F - 62.6 °F 100% 30.12 in 0.8 mi Calm Calm - N/A   Clear
12:23 AM 62.6 °F - 62.6 °F 100% 30.12 in 0.5 mi Calm Calm - N/A Fog Fog
12:25 AM 62.6 °F - 62.6 °F 100% 30.12 in 0.2 mi Calm Calm - N/A Fog Fog
12:31 AM 62.6 °F - 62.6 °F 100% 30.12 in 0.2 mi Calm Calm - N/A Fog Fog
12:54 AM 62.6 °F - 62.6 °F 100% 30.12 in 0.2 mi Calm Calm - N/A Fog Fog
12:55 AM 62.6 °F - 62.2 °F 99% 30.12 in 0.2 mi Calm Calm - N/A Fog Fog
1:55 AM 61.0 °F - 60.6 °F 99% 30.11 in 0.2 mi Calm Calm - N/A Fog Fog
1:11 AM 60.8 °F - 60.8 °F 100% 30.11 in 0.2 mi Calm Calm - N/A Fog Fog
1:55 AM 61.2 °F - 61.0 °F 99% 30.11 in 0.2 mi Calm Calm - N/A Fog Fog
3:55 AM 66.0 °F - 65.7 °F 99% 30.10 in 0.2 mi Calm Calm - N/A Fog Fog
4:55 AM 66.6 °F - 66.2 °F 99% 30.11 in 0.2 mi NNE 4.6 mph - 0.01 in Fog Fog
5:53 AM 66.2 °F - 66.2 °F 100% 30.12 in 0.2 mi Calm Calm - N/A Fog Fog
5:55 AM 66.0 °F - 66.0 °F 100% 30.12 in 0.2 mi Calm Calm - N/A Fog Fog
6:15 AM 66.2 °F - 66.2 °F 100% 30.12 in 0.5 mi Calm Calm - N/A Fog Fog
6:33 AM 66.2 °F - 66.2 °F 100% 30.12 in 0.2 mi ENE 3.5 mph - N/A Fog Fog
6:55 AM 65.8 °F - 65.8 °F 100% 30.12 in 0.2 mi East 3.5 mph - N/A Fog Fog
6:56 AM 66.2 °F - 66.2 °F 100% 30.12 in 0.2 mi East 3.5 mph - N/A Fog Fog
7:55 AM 65.8 °F - 65.8 °F 100% 30.14 in 0.2 mi Calm Calm - N/A Fog Fog
8:55 AM 66.9 °F - 66.9 °F 100% 30.14 in 0.2 mi Calm Calm - N/A Fog Fog
9:48 AM 68.0 °F - 68.0 °F 100% 30.14 in 0.2 mi Calm Calm - N/A Fog Fog
9:50 AM 68.0 °F - 68.0 °F 100% 30.14 in 0.2 mi Calm Calm - N/A Fog Fog
9:55 AM 68.2 °F - 68.2 °F 100% 30.14 in 0.2 mi Calm Calm - N/A Fog Fog
9:56 AM 68.0 °F - 68.0 °F 100% 30.14 in 0.5 mi Calm Calm - N/A Fog Fog
9:59 AM 68.0 °F - 68.0 °F 100% 30.14 in 0.2 mi Calm Calm - N/A Fog Fog
10:00 AM 68.0 °F - 68.0 °F 100% 30.14 in 0.2 mi Calm Calm - N/A Fog Fog
10:03 AM 68.0 °F - 68.0 °F 100% 30.14 in 0.5 mi Calm Calm - N/A Fog Fog
10:04 AM 68.0 °F - 68.0 °F 100% 30.14 in 0.5 mi Calm Calm - N/A Fog Fog
10:05 AM 68.0 °F - 68.0 °F 100% 30.14 in 0.5 mi Calm Calm - N/A Fog Fog
10:08 AM 68.0 °F - 68.0 °F 100% 30.14 in 0.5 mi ESE 3.5 mph - N/A Fog Fog
10:09 AM 68.0 °F - 68.0 °F 100% 30.14 in 0.8 mi ESE 3.5 mph - N/A   Overcast
10:11 AM 68.0 °F - 68.0 °F 100% 30.14 in 1.0 mi Calm Calm - N/A   Overcast
10:13 AM 69.8 °F - 69.8 °F 100% 30.14 in 1.2 mi Calm Calm - N/A   Overcast
10:14 AM 69.8 °F - 69.8 °F 100% 30.14 in 1.5 mi Calm Calm - N/A   Overcast
10:18 AM 69.8 °F - 69.8 °F 100% 30.14 in 2.0 mi Calm Calm - N/A   Overcast
10:23 AM 69.8 °F - 69.8 °F 100% 30.14 in 3.0 mi Calm Calm - N/A   Overcast
10:32 AM 69.8 °F - 69.8 °F 100% 30.14 in 5.0 mi Calm Calm - N/A   Overcast
10:38 AM 69.8 °F - 69.8 °F 100% 30.14 in 6.0 mi Calm Calm - N/A   Overcast
10:46 AM 71.6 °F - 69.8 °F 94% 30.13 in 8.0 mi Calm Calm - N/A   Mostly Cloudy
10:52 AM 71.6 °F - 71.6 °F 100% 30.13 in 9.0 mi Calm Calm - N/A   Scattered Clouds
10:55 AM 72.7 °F - 70.9 °F 94% 30.13 in 10.0 mi Calm Calm - N/A   Scattered Clouds
11:55 AM 75.7 °F - 70.3 °F 83% 30.11 in 8.0 mi Variable 4.6 mph - N/A   Clear
12:55 PM 80.1 °F 81.9 °F 64.9 °F 60% 30.08 in 10.0 mi WSW 3.5 mph - N/A   Clear
1:55 PM 80.2 °F 81.0 °F 60.3 °F 50% 30.06 in 10.0 mi South 5.8 mph - N/A   Clear
2:55 PM 77.0 °F - 62.8 °F 61% 30.04 in 10.0 mi SSW 5.8 mph - N/A   Clear
3:55 PM 77.4 °F - 63.1 °F 61% 30.03 in 10.0 mi SW 8.1 mph - N/A   Clear
4:55 PM 75.9 °F - 66.0 °F 71% 30.03 in 10.0 mi West 4.6 mph - N/A   Clear
5:55 PM 72.3 °F - 64.9 °F 78% 30.03 in 10.0 mi WNW 3.5 mph - N/A   Clear
6:55 PM 68.5 °F - 64.9 °F 88% 30.04 in 10.0 mi NW 5.8 mph - N/A   Clear
7:55 PM 67.8 °F - 67.5 °F 99% 30.06 in 10.0 mi NW 4.6 mph - N/A   Clear
8:30 PM 68.0 °F - 68.0 °F 100% 30.05 in 9.0 mi NW 5.8 mph - N/A   Clear
8:55 PM 67.8 °F - 67.8 °F 100% 30.06 in 8.0 mi NW 5.8 mph - N/A   Clear
9:55 PM 67.8 °F - 67.8 °F 100% 30.05 in 6.0 mi WNW 4.6 mph - N/A   Clear
10:55 PM 67.3 °F - 67.3 °F 100% 30.04 in 7.0 mi West 4.6 mph - N/A   Clear